CW9659 Weather Reports


Display with metric or nautical units.
time (UTC)temp
F
wind
direction
speed
MPH
gust
MPH
rain 1hr
in
rain 24hr
in
rain mn
in
humidity
%
barometer
mb
20260905234404 89 72 0.0 0.0 0.00 0.00 0.00 61 1009.4
20260905233904 90 72 0.0 0.0 0.00 0.00 0.00 60 1009.3
20260905233404 90 72 0.0 0.0 0.00 0.00 0.00 60 1009.2
20260905232904 90 72 0.0 1.0 0.00 0.00 0.00 60 1009.2
20260905231904 90 72 0.0 0.0 0.00 0.00 0.00 60 1009.2
20260905231404 90 72 0.0 0.0 0.00 0.00 0.00 60 1009.1
20260905230904 90 72 0.0 0.0 0.00 0.00 0.00 61 1009.1
20260905230403 90 72 0.0 0.0 0.00 0.00 0.00 60 1009.0
20260905225904 90 72 0.0 0.0 0.00 0.00 0.00 60 1008.9
20260905225404 90 72 0.0 1.0 0.00 0.00 0.00 60 1008.9
20260905224903 91 72 0.0 0.0 0.00 0.00 0.00 58 1008.8
20260905224403 91 72 0.0 0.0 0.00 0.00 0.00 57 1009.0
20260905223903 91 72 0.0 0.0 0.00 0.00 0.00 57 1009.1
20260905223403 92 72 0.0 1.0 0.00 0.00 0.00 57 1009.1
20260905222904 92 72 0.0 1.0 0.00 0.00 0.00 55 1009.2
20260905222404 93 72 0.0 0.0 0.00 0.00 0.00 55 1009.0
20260905221903 93 72 0.0 0.0 0.00 0.00 0.00 54 1009.1
20260905221404 94 72 0.0 0.0 0.00 0.00 0.00 54 1009.1
20260905220903 95 72 0.0 0.0 0.00 0.00 0.00 53 1009.0
20260905220403 95 72 0.0 0.0 0.00 0.00 0.00 51 1009.0
20260905215903 96 72 0.0 0.0 0.00 0.00 0.00 50 1009.1
20260905215403 96 72 0.0 1.0 0.00 0.00 0.00 49 1009.1
20260905214404 97 172 0.0 1.0 0.00 0.00 0.00 48 1009.0
20260905213903 97 132 0.0 1.0 0.00 0.00 0.00 48 1009.0
20260905213403 97 182 0.0 2.0 0.00 0.00 0.00 48 1009.0
20260905212904 97 334 0.0 1.0 0.00 0.00 0.00 47 1009.1
20260905212404 98 356 0.0 1.0 0.00 0.00 0.00 47 1009.1
20260905211903 99 301 1.0 2.0 0.00 0.00 0.00 46 1009.2
20260905211403 100 350 0.0 2.0 0.00 0.00 0.00 45 1009.1
20260905210904 100 55 0.0 3.0 0.00 0.00 0.00 45 1009.1
20260905210403 100 60 1.0 3.0 0.00 0.00 0.00 44 1009.2
20260905205904 100 302 0.0 2.0 0.00 0.00 0.00 45 1009.3
20260905205403 100 311 1.0 2.0 0.00 0.00 0.00 45 1009.3
20260905204904 100 305 1.0 3.0 0.00 0.00 0.00 44 1009.4
20260905204404 101 190 1.0 3.0 0.00 0.00 0.00 44 1009.4
20260905203904 101 81 1.0 2.0 0.00 0.00 0.00 44 1009.5
20260905203403 101 333 0.0 1.0 0.00 0.00 0.00 44 1009.6
20260905202904 100 309 1.0 1.0 0.00 0.00 0.00 44 1009.7
20260905202403 100 41 0.0 2.0 0.00 0.00 0.00 45 1009.6
20260905201904 100 25 1.0 3.0 0.00 0.00 0.00 44 1009.6
20260905201403 100 202 0.0 2.0 0.00 0.00 0.00 45 1009.6
20260905200903 100 273 0.0 1.0 0.00 0.00 0.00 44 1009.7
20260905200403 99 5 1.0 2.0 0.00 0.00 0.00 45 1009.8
20260905195903 98 289 1.0 3.0 0.00 0.00 0.00 49 1010.0
20260905195403 98 182 1.0 2.0 0.00 0.00 0.00 48 1010.0
20260905194404 98 189 0.0 1.0 0.00 0.00 0.00 49 1010.2
20260905193903 99 182 0.0 2.0 0.00 0.00 0.00 48 1010.2
20260905193403 99 175 1.0 3.0 0.00 0.00 0.00 48 1010.3
20260905192903 99 60 1.0 2.0 0.00 0.00 0.00 47 1010.4
20260905192403 99 88 1.0 2.0 0.00 0.00 0.00 46 1010.5
20260905191903 99 236 1.0 2.0 0.00 0.00 0.00 48 1010.6
20260905191404 98 359 0.0 3.0 0.00 0.00 0.00 48 1010.5
20260905190903 98 232 0.0 1.0 0.00 0.00 0.00 49 1010.5
20260905190403 98 339 0.0 1.0 0.00 0.00 0.00 49 1010.7
20260905185403 98 215 1.0 3.0 0.00 0.00 0.00 48 1010.8
20260905184903 98 356 0.0 2.0 0.00 0.00 0.00 47 1010.7
20260905183404 98 190 0.0 2.0 0.00 0.00 0.00 51 1010.7
20260905182904 98 43 1.0 3.0 0.00 0.00 0.00 51 1010.9
20260905182403 97 285 0.0 3.0 0.00 0.00 0.00 51 1011.1
20260905181903 97 319 1.0 3.0 0.00 0.00 0.00 51 1011.1
20260905181404 97 174 1.0 2.0 0.00 0.00 0.00 52 1011.2
20260905180403 96 275 1.0 3.0 0.00 0.00 0.00 52 1011.4
20260905175903 96 9 0.0 3.0 0.00 0.00 0.00 54 1011.4
20260905175404 96 237 1.0 3.0 0.00 0.00 0.00 53 1011.6
20260905174903 95 262 0.0 1.0 0.00 0.00 0.00 54 1011.7
20260905174404 96 74 1.0 6.0 0.00 0.00 0.00 52 1011.8
20260905173404 95 190 0.0 2.0 0.00 0.00 0.00 57 1011.9
20260905172904 94 182 0.0 2.0 0.00 0.00 0.00 55 1011.9
20260905172404 95 181 1.0 3.0 0.00 0.00 0.00 55 1012.0
20260905170403 94 347 1.0 3.0 0.00 0.00 0.00 56 1011.9
20260905165903 93 302 0.0 2.0 0.00 0.00 0.00 56 1011.9
20260905165404 93 183 1.0 3.0 0.00 0.00 0.00 56 1012.0
20260905164904 94 128 1.0 2.0 0.00 0.00 0.00 56 1012.1
20260905164403 94 278 1.0 3.0 0.00 0.00 0.00 57 1012.1
20260905163904 94 236 1.0 2.0 0.00 0.00 0.00 58 1012.1
20260905162904 93 223 1.0 6.0 0.00 0.00 0.00 58 1012.2
20260905162403 93 197 1.0 7.0 0.00 0.00 0.00 60 1012.3
20260905161904 93 227 1.0 6.0 0.00 0.00 0.00 59 1012.3
20260905161403 93 328 1.0 3.0 0.00 0.00 0.00 57 1012.3
20260905160904 93 71 0.0 3.0 0.00 0.00 0.00 59 1012.4
20260905160403 93 53 1.0 3.0 0.00 0.00 0.00 59 1012.4
20260905155403 93 200 0.0 2.0 0.00 0.00 0.00 58 1012.5
20260905154903 94 150 1.0 3.0 0.00 0.00 0.00 58 1012.5
20260905154404 94 342 1.0 3.0 0.00 0.00 0.00 58 1012.6
20260905153903 94 271 1.0 3.0 0.00 0.00 0.00 60 1012.7
20260905152903 93 204 0.0 2.0 0.00 0.00 0.00 60 1012.5
20260905152403 93 201 0.0 2.0 0.00 0.00 0.00 61 1012.5
20260905151903 93 57 0.0 2.0 0.00 0.00 0.00 61 1012.5
20260905151403 93 41 1.0 2.0 0.00 0.00 0.00 61 1012.5
20260905150904 93 76 0.0 2.0 0.00 0.00 0.00 60 1012.5
20260905150403 93 125 0.0 2.0 0.00 0.00 0.00 61 1012.6
20260905145904 92 66 0.0 2.0 0.00 0.00 0.00 62 1012.7
20260905145403 92 45 0.0 1.0 0.00 0.00 0.00 65 1012.6
20260905144903 91 104 1.0 2.0 0.00 0.00 0.00 65 1012.6
20260905144404 91 264 1.0 3.0 0.00 0.00 0.00 67 1012.6
20260905143904 90 242 0.0 1.0 0.00 0.00 0.00 70 1012.6
20260905143403 89 283 0.0 1.0 0.00 0.00 0.00 70 1012.6
20260905142904 88 201 0.0 1.0 0.00 0.00 0.00 71 1012.6
20260905142404 88 204 0.0 1.0 0.00 0.00 0.00 73 1012.5
20260905141904 87 207 0.0 1.0 0.00 0.00 0.00 75 1012.5
20260905140904 86 229 0.0 2.0 0.00 0.00 0.00 77 1012.6
20260905135904 84 205 0.0 0.0 0.00 0.00 0.00 81 1012.7
20260905134904 81 206 0.0 2.0 0.00 0.00 0.00 84 1012.8
20260905134403 81 205 0.0 0.0 0.00 0.00 0.00 84 1012.8
20260905133904 80 205 0.0 0.0 0.00 0.00 0.00 84 1012.8
20260905132903 79 205 0.0 0.0 0.00 0.00 0.00 83 1012.9
20260905132404 78 205 0.0 0.0 0.00 0.00 0.00 82 1012.9
20260905131904 78 205 0.0 0.0 0.00 0.00 0.00 79 1012.9
20260905131404 77 204 0.0 0.0 0.00 0.00 0.00 74 1012.9
20260905130903 77 204 0.0 0.0 0.00 0.00 0.00 73 1013.0
20260905130403 76 204 0.0 0.0 0.00 0.00 0.00 70 1013.0
20260905125904 76 204 0.0 0.0 0.00 0.00 0.00 71 1013.1
20260905125403 75 204 0.0 0.0 0.00 0.00 0.00 70 1013.1
20260905124904 75 204 0.0 0.0 0.00 0.00 0.00 68 1013.1
20260905124404 74 204 0.0 0.0 0.00 0.00 0.00 67 1013.1
20260905123903 74 204 0.0 0.0 0.00 0.00 0.00 68 1013.1
20260905123404 74 204 0.0 0.0 0.00 0.00 0.00 67 1013.1
20260905122404 74 204 0.0 0.0 0.00 0.00 0.00 65 1013.2
20260905121903 73 204 0.0 0.0 0.00 0.00 0.00 66 1013.1
20260905121404 73 204 0.0 0.0 0.00 0.00 0.00 66 1013.0
20260905120403 73 204 0.0 0.0 0.00 0.00 0.00 68 1012.9
20260905115404 73 204 0.0 0.0 0.00 0.00 0.00 69 1012.8
20260905114903 73 204 0.0 0.0 0.00 0.00 0.00 69 1012.8
20260905114404 73 204 0.0 0.0 0.00 0.00 0.00 69 1012.7
20260905113903 73 204 0.0 0.0 0.00 0.00 0.00 70 1012.6
20260905113403 73 204 0.0 0.0 0.00 0.00 0.00 70 1012.5
20260905112903 73 204 0.0 0.0 0.00 0.00 0.00 71 1012.5
20260905112403 73 204 0.0 0.0 0.00 0.00 0.00 71 1012.4
20260905111404 73 204 0.0 0.0 0.00 0.00 0.00 72 1012.4
20260905110903 73 204 0.0 0.0 0.00 0.00 0.00 72 1012.3
20260905110404 74 204 0.0 0.0 0.00 0.00 0.00 71 1012.2
20260905105904 74 204 0.0 0.0 0.00 0.00 0.00 71 1012.1
20260905105403 74 203 0.0 0.0 0.00 0.00 0.00 71 1012.1
20260905104904 74 203 0.0 0.0 0.00 0.00 0.00 71 1012.1
20260905104404 74 203 0.0 0.0 0.00 0.00 0.00 73 1012.1
20260905103903 74 203 0.0 0.0 0.00 0.00 0.00 73 1012.1
20260905103403 74 203 0.0 0.0 0.00 0.00 0.00 73 1012.0
20260905102904 74 203 0.0 0.0 0.00 0.00 0.00 73 1012.0
20260905102403 74 203 0.0 0.0 0.00 0.00 0.00 73 1012.0
20260905101904 74 203 0.0 0.0 0.00 0.00 0.00 75 1011.9
20260905101404 74 203 0.0 0.0 0.00 0.00 0.00 74 1011.8
20260905100903 74 203 0.0 1.0 0.00 0.00 0.00 74 1011.8
20260905095904 74 204 0.0 0.0 0.00 0.00 0.00 76 1011.8
20260905095404 74 204 0.0 0.0 0.00 0.00 0.00 78 1011.7
20260905094403 75 204 0.0 0.0 0.00 0.00 0.00 79 1011.6
20260905093904 75 204 0.0 0.0 0.00 0.00 0.00 79 1011.6
20260905093403 75 204 0.0 0.0 0.00 0.00 0.00 79 1011.5
20260905092904 75 204 0.0 0.0 0.00 0.00 0.00 80 1011.6
20260905092404 75 204 0.0 0.0 0.00 0.00 0.00 79 1011.5
20260905091903 75 204 0.0 0.0 0.00 0.00 0.00 80 1011.5
20260905090904 75 204 0.0 0.0 0.00 0.00 0.00 79 1011.4
20260905090404 75 204 0.0 0.0 0.00 0.00 0.00 79 1011.4
20260905085904 75 204 0.0 0.0 0.00 0.00 0.00 80 1011.3
20260905085403 75 204 0.0 0.0 0.00 0.00 0.00 80 1011.4
20260905084903 75 204 0.0 0.0 0.00 0.00 0.00 80 1011.4
20260905084403 76 204 0.0 0.0 0.00 0.00 0.00 80 1011.4
20260905083404 76 204 0.0 0.0 0.00 0.00 0.00 80 1011.4
20260905082403 76 204 0.0 0.0 0.00 0.00 0.00 80 1011.6
20260905081904 76 204 0.0 0.0 0.00 0.00 0.00 81 1011.6
20260905081403 76 204 0.0 0.0 0.00 0.00 0.00 81 1011.5
20260905080903 76 204 0.0 0.0 0.00 0.00 0.00 80 1011.6
20260905080404 76 204 0.0 0.0 0.00 0.00 0.00 80 1011.6
20260905075903 76 204 0.0 0.0 0.00 0.00 0.00 80 1011.6
20260905075404 76 204 0.0 0.0 0.00 0.00 0.00 82 1011.7
20260905074903 76 204 0.0 0.0 0.00 0.00 0.00 82 1011.7
20260905074403 76 204 0.0 0.0 0.00 0.00 0.00 82 1011.7
20260905073904 76 204 0.0 0.0 0.00 0.00 0.00 83 1011.8
20260905073403 76 204 0.0 0.0 0.00 0.00 0.00 84 1011.7
20260905072904 76 204 0.0 0.0 0.00 0.00 0.00 84 1011.7
20260905072403 76 204 0.0 0.0 0.00 0.00 0.00 84 1011.8
20260905071903 77 204 0.0 0.0 0.00 0.00 0.00 84 1011.8
20260905071403 77 204 0.0 0.0 0.00 0.00 0.00 84 1011.8
20260905070903 77 204 0.0 0.0 0.00 0.00 0.00 85 1011.8
20260905070403 77 204 0.0 0.0 0.00 0.00 0.00 85 1011.9
20260905065904 77 204 0.0 0.0 0.00 0.00 0.00 85 1011.9
20260905065404 77 204 0.0 0.0 0.00 0.00 0.00 85 1011.9
20260905064403 78 204 0.0 0.0 0.00 0.00 0.00 85 1011.9
20260905063904 78 204 0.0 0.0 0.00 0.00 0.00 85 1012.0
20260905062903 78 204 0.0 0.0 0.00 0.00 0.00 85 1012.1
20260905062404 78 204 0.0 0.0 0.00 0.00 0.00 85 1012.2
20260905061903 78 204 0.0 0.0 0.00 0.00 0.00 85 1012.2
20260905060404 78 204 0.0 0.0 0.00 0.00 0.00 85 1012.2
20260905055903 78 204 0.0 0.0 0.00 0.00 0.00 85 1012.3
20260905055403 78 204 0.0 0.0 0.00 0.00 0.00 85 1012.3
20260905054903 78 204 0.0 0.0 0.00 0.00 0.00 85 1012.3
20260905054403 78 204 0.0 0.0 0.00 0.00 0.00 85 1012.4
20260905053904 78 204 0.0 0.0 0.00 0.00 0.00 85 1012.4
20260905053404 78 204 0.0 0.0 0.00 0.00 0.00 85 1012.4
20260905050904 78 204 0.0 0.0 0.00 0.00 0.00 84 1012.5
20260905050404 79 204 0.0 0.0 0.00 0.00 0.00 84 1012.5
20260905045904 79 204 0.0 0.0 0.00 0.00 0.00 84 1012.5
20260905045403 79 204 0.0 0.0 0.00 0.00 0.00 83 1012.4
20260905043904 79 204 0.0 0.0 0.00 0.00 0.00 83 1012.4
20260905042903 80 204 0.0 0.0 0.00 0.00 0.00 83 1012.3
20260905041904 80 204 0.0 0.0 0.00 0.00 0.00 83 1012.4
20260905041404 80 204 0.0 0.0 0.00 0.00 0.00 81 1012.4
20260905040904 80 204 0.0 0.0 0.00 0.00 0.00 81 1012.4
20260905040404 81 204 0.0 0.0 0.00 0.00 0.00 81 1012.4
20260905035904 81 204 0.0 0.0 0.00 0.00 0.00 81 1012.5
20260905035404 81 204 0.0 0.0 0.00 0.00 0.00 80 1012.5
20260905034903 81 204 0.0 0.0 0.00 0.00 0.00 81 1012.5
20260905034404 81 204 0.0 0.0 0.00 0.00 0.00 81 1012.5
20260905033903 82 204 0.0 1.0 0.00 0.00 0.00 80 1012.5
20260905033403 82 204 0.0 0.0 0.00 0.00 0.00 79 1012.5
20260905032903 82 204 0.0 0.0 0.00 0.00 0.00 79 1012.5
20260905032403 82 204 0.0 0.0 0.00 0.00 0.00 78 1012.5
20260905031903 83 204 0.0 0.0 0.00 0.00 0.00 77 1012.5
20260905030903 84 204 0.0 0.0 0.00 0.00 0.00 76 1012.5
20260905030403 85 204 0.0 0.0 0.00 0.00 0.00 74 1012.5
20260905025403 84 203 0.0 2.0 0.00 0.00 0.00 73 1012.5
20260905023904 85 203 0.0 1.0 0.00 0.00 0.00 72 1012.4
20260905022904 85 203 0.0 0.0 0.00 0.00 0.00 71 1012.4
20260905021904 86 203 0.0 1.0 0.00 0.00 0.00 71 1012.2
20260905020904 86 203 0.0 1.0 0.00 0.00 0.00 70 1012.3
20260905020403 86 203 0.0 1.0 0.00 0.00 0.00 71 1012.3
20260905015904 86 203 0.0 2.0 0.00 0.00 0.00 71 1012.3
20260905014903 86 203 0.0 1.0 0.00 0.00 0.00 70 1012.3
20260905014403 87 203 0.0 0.0 0.00 0.00 0.00 69 1012.4
20260905013903 87 203 0.0 1.0 0.00 0.00 0.00 69 1012.3
20260905013403 87 203 1.0 1.0 0.00 0.00 0.00 69 1012.2
20260905012904 87 203 0.0 0.0 0.00 0.00 0.00 69 1012.2
20260905012403 87 203 1.0 2.0 0.00 0.00 0.00 69 1012.1
20260905011903 88 203 0.0 2.0 0.00 0.00 0.00 69 1012.2
20260905011403 88 203 0.0 2.0 0.00 0.00 0.00 68 1012.2
20260905010903 88 203 0.0 2.0 0.00 0.00 0.00 67 1012.2
20260905010404 89 203 0.0 2.0 0.00 0.00 0.00 66 1012.2
20260905005403 89 203 0.0 2.0 0.00 0.00 0.00 65 1012.2
20260905004903 89 203 1.0 1.0 0.00 0.00 0.00 65 1012.2
20260905003904 89 203 0.0 1.0 0.00 0.00 0.00 65 1012.2
20260905003403 89 203 0.0 1.0 0.00 0.00 0.00 64 1012.2
20260905002904 89 203 0.0 0.0 0.00 0.00 0.00 64 1012.1
20260905002404 90 203 0.0 2.0 0.00 0.00 0.00 63 1012.1
20260905001903 90 203 0.0 1.0 0.00 0.00 0.00 63 1012.1
20260905001404 90 203 0.0 0.0 0.00 0.00 0.00 62 1012.0
20260905000403 90 203 1.0 1.0 0.00 0.00 0.00 61 1012.0
20260904234903 91 268 0.0 0.0 0.00 0.00 0.00 60 1011.9